Weather History for KCPC - December, 2013

Change the Weather History Date:

Saturday, December 7, 2013

  Actual Average (KLBT) Record (KLBT)
Temperature  
Mean Temperature 56 °F 48 °F  
Max Temperature 68 °F 59 °F 79 °F (1998)
Min Temperature 42 °F 37 °F 20 °F (2010)
Degree Days  
Heating Degree Days 10 17  
Month to date heating degree days 113  
Since 1 July heating degree days 579  
Cooling Degree Days 0 0  
Month to date cooling degree days 0  
Year to date cooling degree days 1907  
Growing Degree Days 6 (Base 50)    
Moisture  
Dew Point 52 °F    
Average Humidity 91    
Maximum Humidity 96    
Minimum Humidity 86    
Precipitation  
Precipitation 0.32 in 0.10 in 0.31 in (2013)
Month to date precipitation 0.75  
Year to date precipitation 41.38  
Sea Level Pressure  
Sea Level Pressure 30.23 in    
Wind  
Wind Speed 7 mph (NNE)    
Max Wind Speed 10 mph    
Max Gust Speed 22 mph    
Visibility 8 miles    
Events Rain    
T = Trace of Precipitation, MM = Missing Value Source: NWS Daily Summary

Daily Weather History Graph

Daily Weather History Graph

Search for Another Location

Airport or City:

Trip Planner

Search our weather history database for the weather conditions in past years. The results will help you decide how hot, cold, wet, or windy it might be!

Date:

Astronomy

Dec. 07, 2013 Rise Set
Actual Time 7:07 AM EST 5:04 PM EST
Civil Twilight 6:40 AM EST 5:32 PM EST
Nautical Twilight 6:09 AM EST 6:03 PM EST
Astronomical Twilight 5:38 AM EST 6:34 PM EST
Moon 11:00 AM EST (12/7) 10:34 PM EST (12/7)
Length of Visible Light 10h 52m
Length of Day
9h 56m
Waxing Crescent, 29% of the Moon is Illuminated
Dec 7
Waxing Crescent
Dec 9
First Quarter
Dec 17
Full
Dec 25
Last Quarter
Jan 1
New

Hourly Weather History & Observations

Time (EST) Temp. Windchill Dew Point Humidity Pressure Visibility Wind Dir Wind Speed Gust Speed Precip Events Conditions
12:15 AM 66.4 °F - 64.0 °F 92% 30.09 in 10.0 mi South 6.9 mph - N/A   Clear
12:35 AM 66.2 °F - 63.9 °F 92% 30.09 in 10.0 mi SSW 6.9 mph - N/A   Clear
12:55 AM 66.4 °F - 63.9 °F 92% 30.08 in 10.0 mi South 6.9 mph - N/A   Clear
1:15 AM 66.4 °F - 63.9 °F 92% 30.08 in 10.0 mi South 8.1 mph - N/A   Clear
1:35 AM 66.4 °F - 63.9 °F 92% 30.07 in 10.0 mi South 8.1 mph - N/A   Clear
1:55 AM 66.4 °F - 63.9 °F 92% 30.07 in 10.0 mi South 8.1 mph - N/A   Clear
2:15 AM 66.4 °F - 63.9 °F 92% 30.08 in 10.0 mi SSW 8.1 mph - N/A   Clear
2:35 AM 66.7 °F - 64.0 °F 91% 30.08 in 10.0 mi SSW 8.1 mph - N/A   Clear
2:55 AM 66.0 °F - 63.7 °F 92% 30.09 in 10.0 mi SSW 5.8 mph - N/A   Clear
3:15 AM 66.7 °F - 64.0 °F 91% 30.08 in 10.0 mi SSW 4.6 mph - N/A   Clear
3:35 AM 66.2 °F - 63.7 °F 92% 30.09 in 10.0 mi SW 4.6 mph - N/A   Clear
3:55 AM 66.2 °F - 63.7 °F 92% 30.09 in 10.0 mi SSW 5.8 mph - N/A   Clear
4:15 AM 67.5 °F - 64.0 °F 89% 30.08 in 10.0 mi SSW 6.9 mph - N/A   Clear
4:35 AM 67.8 °F - 63.9 °F 87% 30.08 in 10.0 mi SSW 9.2 mph - N/A   Clear
4:55 AM 68.4 °F - 64.0 °F 86% 30.08 in 10.0 mi SSW 9.2 mph - N/A   Clear
5:15 AM 68.4 °F - 64.0 °F 86% 30.08 in 10.0 mi SSW 10.4 mph 17.3 mph N/A   Clear
5:35 AM 68.4 °F - 64.0 °F 86% 30.08 in 10.0 mi SSW 8.1 mph 16.1 mph N/A   Clear
5:55 AM 68.0 °F - 63.9 °F 87% 30.08 in 10.0 mi SSW 9.2 mph - N/A   Clear
6:15 AM 67.6 °F - 63.9 °F 88% 30.09 in 10.0 mi SSW 6.9 mph - N/A   Clear
6:35 AM 67.3 °F - 63.7 °F 88% 30.10 in 10.0 mi SSW 6.9 mph - N/A   Clear
6:55 AM 67.1 °F - 63.9 °F 89% 30.11 in 10.0 mi SW 5.8 mph - N/A   Scattered Clouds
7:15 AM 67.3 °F - 63.9 °F 89% 30.12 in 10.0 mi SW 6.9 mph - N/A   Scattered Clouds
7:35 AM 66.7 °F - 63.9 °F 90% 30.12 in 10.0 mi SSW 3.5 mph - N/A   Mostly Cloudy
7:55 AM 67.8 °F - 64.2 °F 88% 30.13 in 10.0 mi Calm Calm - N/A   Overcast
8:15 AM 68.0 °F - 64.4 °F 88% 30.14 in 10.0 mi SW 3.5 mph - N/A   Overcast
8:35 AM 67.6 °F - 64.8 °F 90% 30.15 in 5.0 mi SW 3.5 mph - 0.01 in Rain Light Rain
8:55 AM 67.1 °F - 65.3 °F 94% 30.16 in 2.0 mi Calm Calm - 0.07 in Rain Heavy Rain
9:15 AM 67.1 °F - 65.5 °F 95% 30.17 in 2.0 mi SW 3.5 mph - 0.08 in Rain Heavy Rain
9:35 AM 66.7 °F - 65.5 °F 96% 30.18 in 5.0 mi Calm Calm - 0.11 in Rain Light Rain
9:55 AM 64.6 °F - 62.4 °F 93% 30.20 in 5.0 mi NNW 9.2 mph 16.1 mph 0.11 in   Overcast
10:15 AM 53.1 °F - 51.1 °F 93% 30.23 in 3.0 mi NNE 9.2 mph 21.9 mph 0.01 in Rain Light Rain
10:35 AM 51.6 °F - 50.2 °F 95% 30.24 in 10.0 mi North 4.6 mph - 0.01 in   Drizzle
10:55 AM 50.9 °F - 49.3 °F 94% 30.25 in 10.0 mi North 10.4 mph 17.3 mph 0.01 in   Overcast
11:15 AM 50.4 °F - 48.6 °F 94% 30.26 in 4.0 mi North 8.1 mph 16.1 mph N/A Rain Light Rain
11:35 AM 50.0 °F - 48.2 °F 94% 30.26 in 4.0 mi NNE 5.8 mph - N/A   Overcast
11:55 AM 49.5 °F - 47.8 °F 94% 30.25 in 4.0 mi NNE 9.2 mph - N/A   Overcast
12:15 PM 49.1 °F - 47.3 °F 93% 30.26 in 4.0 mi NNE 6.9 mph 20.7 mph N/A   Overcast
12:35 PM 49.1 °F - 47.5 °F 94% 30.25 in 3.0 mi NNE 5.8 mph - N/A   Overcast
12:55 PM 48.7 °F - 46.6 °F 92% 30.25 in 5.0 mi NNE 9.2 mph 17.3 mph N/A   Overcast
1:15 PM 48.7 °F - 45.9 °F 90% 30.25 in 10.0 mi NNE 8.1 mph 17.3 mph N/A   Overcast
1:35 PM 48.4 °F - 46.4 °F 93% 30.25 in 7.0 mi NNE 8.1 mph - N/A   Overcast
1:55 PM 48.2 °F - 46.4 °F 93% 30.25 in 2.5 mi North 8.1 mph - N/A   Overcast
2:15 PM 47.3 °F - 45.7 °F 94% 30.26 in 2.5 mi NNE 6.9 mph - N/A   Overcast
2:35 PM 46.9 °F - 45.1 °F 93% 30.26 in 4.0 mi North 8.1 mph - N/A   Overcast
2:55 PM 46.4 °F 42.9 °F 44.6 °F 93% 30.26 in 7.0 mi North 6.9 mph - N/A   Overcast
3:15 PM 46.4 °F 42.9 °F 44.4 °F 93% 30.27 in 7.0 mi NNE 6.9 mph - N/A   Overcast
3:35 PM 46.2 °F 42.2 °F 43.9 °F 92% 30.27 in 7.0 mi NE 8.1 mph - N/A   Overcast
3:55 PM 46.4 °F 42.4 °F 43.2 °F 88% 30.28 in 10.0 mi NNE 8.1 mph - N/A   Overcast
4:15 PM 46.4 °F 43.5 °F 43.3 °F 89% 30.29 in 10.0 mi NNE 5.8 mph - N/A   Overcast
4:35 PM 46.2 °F 43.3 °F 43.2 °F 89% 30.30 in 10.0 mi NNE 5.8 mph - N/A   Overcast
4:55 PM 45.9 °F 41.7 °F 43.0 °F 90% 30.30 in 10.0 mi NNE 8.1 mph - N/A   Overcast
5:15 PM 45.9 °F 42.3 °F 42.6 °F 88% 30.32 in 10.0 mi NNE 6.9 mph - N/A   Overcast
5:35 PM 45.7 °F 41.0 °F 41.9 °F 87% 30.32 in 10.0 mi NE 9.2 mph 16.1 mph N/A   Overcast
5:55 PM 45.5 °F 41.8 °F 41.9 °F 87% 30.33 in 10.0 mi NE 6.9 mph - N/A Rain Light Rain
6:15 PM 45.3 °F 41.1 °F 41.9 °F 88% 30.34 in 10.0 mi NE 8.1 mph - N/A Rain Light Rain
6:35 PM 44.6 °F 40.7 °F 42.3 °F 91% 30.34 in 3.0 mi NNE 6.9 mph - 0.05 in Rain Rain
6:55 PM 44.2 °F 39.7 °F 42.4 °F 93% 30.34 in 5.0 mi NE 8.1 mph - 0.07 in Rain Heavy Rain
7:15 PM 44.2 °F 39.2 °F 42.4 °F 93% 30.35 in 7.0 mi NNE 9.2 mph - N/A   Drizzle
7:35 PM 44.4 °F 40.0 °F 42.6 °F 93% 30.37 in 7.0 mi NE 8.1 mph - N/A   Light Drizzle
7:55 PM 44.4 °F 40.5 °F 42.3 °F 92% 30.37 in 10.0 mi NE 6.9 mph - N/A   Drizzle
8:15 PM 44.6 °F 39.7 °F 42.1 °F 91% 30.38 in 10.0 mi NNE 9.2 mph - N/A   Overcast
8:35 PM 44.1 °F 40.1 °F 41.9 °F 92% 30.38 in 5.0 mi NE 6.9 mph - N/A Rain Light Rain
8:55 PM 43.9 °F 39.3 °F 41.7 °F 92% 30.38 in 7.0 mi NE 8.1 mph - 0.01 in Rain Rain
9:15 PM 43.9 °F 39.3 °F 41.9 °F 93% 30.39 in 10.0 mi NE 8.1 mph - N/A Rain Light Rain
9:35 PM 43.9 °F 40.5 °F 41.5 °F 91% 30.39 in 10.0 mi NE 5.8 mph - N/A   Overcast
9:55 PM 43.9 °F 38.8 °F 41.4 °F 91% 30.39 in 10.0 mi NE 9.2 mph - N/A   Overcast
10:15 PM 43.9 °F 39.3 °F 41.0 °F 90% 30.39 in 10.0 mi NE 8.1 mph 16.1 mph N/A   Overcast
10:35 PM 43.7 °F 39.7 °F 41.2 °F 91% 30.40 in 5.0 mi NE 6.9 mph - N/A   Overcast
10:55 PM 43.3 °F 39.9 °F 41.4 °F 93% 30.39 in 5.0 mi NNE 5.8 mph - 0.02 in Rain Rain
11:15 PM 43.2 °F 37.4 °F 41.0 °F 92% 30.39 in 10.0 mi NE 10.4 mph - N/A Rain Light Rain
11:35 PM 43.0 °F 38.8 °F 40.6 °F 91% 30.39 in 7.0 mi NNE 6.9 mph - 0.02 in Rain Rain
11:55 PM 42.8 °F 40.1 °F 41.0 °F 93% 30.39 in 7.0 mi NNE 4.6 mph - 0.03 in Rain Rain